Location: Palo Alto
(37.4420°N, 122.1420°W)
Time: 23:22:24
(UTC-07:00)

ISS - All Passes

Search period start: 21 October 2014 00:00
Search period end: 31 October 2014 00:00
Orbit: 413 x 416 km, 51.6° (Epoch: 21 October)

Date Brightness Start Highest point End Pass type
(mag) Time Alt. Az. Time Alt. Az. Time Alt. Az.
21 Oct - 14:06:45 10° SW 14:10:03 66° SE 14:13:22 10° NE daylight
21 Oct - 15:44:42 10° WNW 15:47:02 17° NNW 15:49:23 10° NNE daylight
21 Oct - 19:02:41 10° N 19:02:57 10° NNE 19:03:13 10° NNE visible
21 Oct - 20:37:17 10° NW 20:40:26 37° NE 20:43:33 10° ESE visible
21 Oct - 22:14:24 10° W 22:16:57 20° SW 22:19:28 10° S night (unlit)
22 Oct - 13:18:02 10° SSW 13:21:04 33° SE 13:24:07 10° ENE daylight
22 Oct - 14:54:58 10° W 14:57:48 25° NNW 15:00:39 10° NNE daylight
22 Oct - 19:48:28 10° NNW 19:51:14 24° NNE 19:54:00 10° E visible
22 Oct - 21:24:53 10° WNW 21:28:01 38° SW 21:31:07 10° SSE visible
23 Oct - 12:29:46 10° S 12:32:07 18° SE 12:34:29 10° E daylight
23 Oct - 14:05:25 10° WSW 14:08:35 40° NW 14:11:46 10° NE daylight
23 Oct - 15:45:18 10° NNW 15:46:01 11° NNW 15:46:44 10° N daylight
23 Oct - 18:59:43 10° NNW 19:01:56 16° NNE 19:04:09 10° ENE visible
23 Oct - 20:35:38 10° NW 20:38:58 75° SW 20:42:17 10° SE visible
24 Oct - 13:16:06 10° SW 13:19:25 75° NW 13:22:45 10° NE daylight
24 Oct - 14:54:47 10° NW 14:56:35 14° NNW 14:58:24 10° N daylight
24 Oct - 18:11:06 10° N 18:12:32 12° NNE 18:13:59 10° NE daylight
24 Oct - 19:46:31 10° NW 19:49:49 57° NE 19:53:06 10° ESE visible
24 Oct - 21:24:36 10° W 21:26:09 13° SW 21:27:41 10° SSW visible
25 Oct - 12:27:01 10° SW 12:30:16 56° SE 12:33:33 10° ENE daylight
25 Oct - 14:04:43 10° WNW 14:07:11 19° NNW 14:09:39 10° NNE daylight
25 Oct - 18:57:30 10° NNW 19:00:34 33° NNE 19:03:37 10° E visible
25 Oct - 20:34:25 10° WNW 20:37:08 23° SW 20:39:51 10° S visible
26 Oct - 11:38:15 10° SSW 11:41:09 29° SE 11:44:05 10° ENE daylight
26 Oct - 13:14:53 10° W 13:17:48 28° NNW 13:20:45 10° NNE daylight
26 Oct - 18:08:33 10° NNW 18:11:12 21° NNE 18:13:50 10° E daylight
26 Oct - 19:44:50 10° WNW 19:48:02 44° SW 19:51:13 10° SSE visible
27 Oct - 10:50:01 10° SSE 10:52:04 16° SE 10:54:08 10° E daylight
27 Oct - 12:25:15 10° WSW 12:28:28 47° NW 12:31:42 10° NE daylight
27 Oct - 14:04:45 10° NW 14:05:49 11° NNW 14:06:53 10° N daylight
27 Oct - 17:19:41 10° NNW 17:21:44 15° NNE 17:23:46 10° ENE daylight
27 Oct - 18:55:28 10° NW 18:58:49 89° SW 19:02:08 10° SE visible
28 Oct - 11:35:50 10° SW 11:39:09 88° NW 11:42:29 10° NE daylight
28 Oct - 13:14:15 10° WNW 13:16:15 15° NNW 13:18:14 10° NNE daylight
28 Oct - 16:31:01 10° N 16:32:10 11° NNE 16:33:18 10° NE daylight
28 Oct - 18:06:15 10° NW 18:09:30 48° NE 18:12:44 10° ESE daylight
28 Oct - 19:43:54 10° W 19:45:52 15° SW 19:47:50 10° SSW visible
29 Oct - 10:46:40 10° SSW 10:49:52 46° SE 10:53:04 10° ENE daylight
29 Oct - 12:24:06 10° W 12:26:42 21° NNW 12:29:18 10° NNE daylight
29 Oct - 17:17:06 10° NNW 17:20:04 29° NNE 17:23:01 10° E daylight
29 Oct - 18:53:48 10° WNW 18:56:41 27° SW 18:59:34 10° SSE visible
30 Oct - 09:57:52 10° S 10:00:37 24° SE 10:03:22 10° ENE daylight
30 Oct - 11:34:10 10° W 11:37:11 32° NNW 11:40:13 10° NNE daylight
30 Oct - 16:28:02 10° NNW 16:30:31 19° NNE 16:33:01 10° ENE daylight
30 Oct - 18:04:09 10° WNW 18:07:25 54° SW 18:10:39 10° SE daylight
